Home > Weather > Rae-Edzo > Past weeks

Flag for Canada Weather for the Past 2 Weeks in Rae-Edzo, Northwest Territories, Canada

Now
-3 °F

Frigid.


Feels Like: -19 °F
Forecast: -7 / 1 °F
Wind: 9 mph from Northwest

Location: Lac La Martre

Current Time: Feb 6, 2016 at 12:49:04 PM

Latest Report: Feb 6, 2016 at 12:00 PM


Visibility: N/A

Pressure: 29.80 "Hg

Humidity: N/A

Dew point: N/A

Location of Rae-EdzoLocation

Historic Weather in Rae-Edzo — Graph

°F

Rae-Edzo Temperature Yesterday

Maximum temperature yesterday: -1 °F (at 10:00 PM)
Minimum temperature yesterday: -17 °F (at 12:00 AM)
Average temperature yesterday: -9 °F

High & Low Weather Summary for the Past Weeks

 TemperatureHumidityPressure
High11 °F (Jan 28, 1:00 PM)95% (Jan 29, 6:00 PM)30.27 "Hg (Jan 29, 6:00 PM)
Low-39 °F (Feb 4, 8:00 AM)58% (Feb 4, 2:00 AM)29.16 "Hg (Jan 28, 6:00 PM)
Average-6 °F81%29.87 "Hg
* Reported Jan 22 11:00 AM — Feb 6 11:00 AM, Rae-Edzo, Weather by CustomWeather, © 2016

Note: Actual official high and low records may vary slightly from our data, if they occured in-between our weather recording intervals... More about our weather records

Advertising

Rae-Edzo Weather History for the Previous 24 Hours

 ConditionsComfort  
Time TempWeatherWind HumidityBarometerVisibility
11:00 AM
Sat, Feb 6
-6 °FFrigid.8 mph78%29.78 "HgN/A
10:00 AM-7 °FFrigid.7 mph78%29.74 "HgN/A
9:00 AM-6 °FFrigid.8 mph78%29.72 "HgN/A
8:00 AM-7 °FFrigid.9 mph80%29.70 "HgN/A
7:00 AM-6 °FFrigid.8 mph80%29.68 "HgN/A
6:00 AM-8 °FFrigid.5 mph80%29.67 "HgN/A
5:00 AM-7 °FFrigid.6 mph82%29.64 "HgN/A
4:00 AM-2 °FFrigid.5 mph83%29.62 "HgN/A
3:00 AM-1 °FFrigid.3 mph84%29.60 "HgN/A
2:00 AM-1 °FFrigid.5 mph83%29.58 "HgN/A
1:00 AM0 °FFrigid.2 mph84%29.59 "HgN/A
12:00 AM0 °FFrigid.No wind84%29.58 "HgN/A
11:00 PM
Fri, Feb 5
-1 °FFrigid.1 mph84%29.57 "HgN/A
10:00 PM-1 °FFrigid.3 mph84%29.57 "HgN/A
9:00 PM-1 °FFrigid.3 mph90%29.59 "HgN/A
8:00 PM-1 °FFrigid.6 mph83%29.60 "HgN/A
7:00 PM-2 °FFrigid.6 mph83%29.59 "HgN/A
6:00 PM-3 °FFrigid.7 mph83%29.60 "HgN/A
5:00 PM-4 °FFrigid.7 mph81%29.63 "HgN/A
4:00 PM-5 °FFrigid.8 mph81%29.65 "HgN/A
3:00 PM-5 °FFrigid.7 mph81%29.67 "HgN/A
2:00 PM-7 °FFrigid.9 mph81%29.66 "HgN/A
1:00 PM-8 °FFrigid.13 mph80%29.66 "HgN/A
12:00 PM-9 °FFrigid.10 mph79%29.70 "HgN/A
Weather by CustomWeather, © 2016

See weather overviewHow to use our weather pages